BRAC ONNESHA (42823 NORAD) Tracking and Keplerian Element Data

This shows tracking and keplerian element data for the satellite.

Feedback or suggestion? Click here.




ElementValue
Catalog42823
NameBRAC ONNESHA
Epoch Orbit10284
Epoch Day113.47580377
Epoch Year2019
RAAN197.1146
Inclination51.6212
Eccentricity0.00109
Argument of Perigee345.8241
Mean Anonmoly14.2464
Mean Motion16.06724187
Decay Rate0.00369615
L11 42823U 98067MX 19113.47580377 .00369615 75251-4 46917-3 0 9999
L22 42823 51.6212 197.1146 0010900 345.8241 14.2464 16.06724187102842

Live tracking and technical data element details for BRAC ONNESHA (NORAD 42823). BRAC ONNESHA can be tracked NOW for your location showing map with azimuth and elevation plus other details from your city location.

Track the satellite on the map from your city or location and see movement details for azimuth, elevation, latitude, longitude, range, height, and movement on the map or in text.







IsCatalogInMostPopularTable: catalog: 42823, numindb: 207
Update: records affected: 1



GetName: 42823 BRAC ONNESHA

Hit Count: updated at: Thu, 25 Apr 2019 19:40:59 GMT